Location: Dompnac
(44.5644°N, 4.1026°E)
Time: 13:26:28
(UTC+00:00)

CSL-04 Rocket - Visible Passes

Search period start: 16 January 2021 00:00
Search period end: 26 January 2021 00:00
Orbit: 806 x 859 km, 98.9° (Epoch: 16 January)

Date Brightness Start Highest point End Pass type
(mag) Time Alt. Az. Time Alt. Az. Time Alt. Az.
16 Jan 6.5 06:36:03 10° NE 06:39:49 18° E 06:43:34 10° SE visible
16 Jan 4.1 18:01:09 10° SE 18:06:02 37° ENE 18:11:00 10° N visible
16 Jan 5.2 19:41:37 10° SSW 19:46:23 32° W 19:51:13 10° NNW visible
17 Jan 6.8 06:20:13 10° ENE 06:22:38 13° E 06:25:03 10° ESE visible
17 Jan 4.5 17:44:46 10° ESE 17:49:14 28° ENE 17:53:46 10° N visible
17 Jan 4.6 19:24:12 10° S 19:29:18 45° W 19:34:32 10° NNW visible
18 Jan 4.8 17:28:36 10° ESE 17:32:29 21° ENE 17:36:24 10° NNE visible
18 Jan 4.0 19:06:59 10° S 19:12:18 63° WSW 19:17:44 10° NNW visible
19 Jan 5.1 17:12:43 10° E 17:15:46 15° NE 17:18:51 10° NNE visible
19 Jan 3.6 18:49:56 10° SSE 18:55:19 88° WSW 19:00:50 10° NNW visible
19 Jan 6.5 20:34:26 10° WSW 20:36:26 12° W 20:38:27 10° WNW visible
20 Jan 3.5 18:33:03 10° SSE 18:38:23 68° ENE 18:43:50 10° N visible
20 Jan 6.2 20:15:45 10° SW 20:19:14 17° W 20:22:47 10° NW visible
21 Jan 3.8 18:16:21 10° SE 18:21:31 49° ENE 18:26:47 10° N visible
21 Jan 5.7 19:57:46 10° SSW 20:02:05 24° W 20:06:29 10° NW visible
22 Jan 6.6 06:34:47 10° NE 06:38:27 18° E 06:42:06 10° SE visible
22 Jan 4.2 17:59:48 10° SE 18:04:41 36° ENE 18:09:39 10° N visible
22 Jan 5.2 19:40:08 10° SSW 19:44:59 34° W 19:49:56 10° NNW visible
23 Jan 6.9 06:19:03 10° ENE 06:21:16 12° E 06:23:28 10° ESE visible
23 Jan 4.5 17:43:26 10° ESE 17:47:53 27° ENE 17:52:25 10° N visible
23 Jan 4.6 19:22:44 10° S 19:27:55 47° W 19:33:14 10° NNW visible
24 Jan 4.9 17:27:17 10° ESE 17:31:08 20° ENE 17:35:02 10° NNE visible
24 Jan 4.0 19:05:33 10° S 19:10:55 66° WSW 19:16:25 10° NNW visible
25 Jan 5.2 17:11:26 10° E 17:14:26 15° NE 17:17:27 10° NNE visible
25 Jan 3.6 18:48:32 10° SSE 18:53:57 90° ENE 18:59:29 10° NNW visible
25 Jan 6.5 20:32:44 10° WSW 20:35:02 13° W 20:37:22 10° WNW visible
